Weather History for EHGG - May, 2013

Change the Weather History Date:

Tuesday, May 14, 2013

  Actual Average Record
Temperature  
Mean Temperature 48 °F -  
Max Temperature 55 °F 64 °F 82 °F (2000)
Min Temperature 41 °F 46 °F 41 °F (2003)
Degree Days  
Heating Degree Days 17    
Moisture  
Dew Point 43 °F    
Average Humidity 82    
Maximum Humidity 100    
Minimum Humidity 55    
Precipitation  
Precipitation 0.04 in 0.08 in - ()
Sea Level Pressure  
Sea Level Pressure 29.73 in    
Wind  
Wind Speed 10 mph ()    
Max Wind Speed 18 mph    
Max Gust Speed -    
Visibility 6.6 miles    
Events Rain    
Averages and records for this station are not official NWS values.
T = Trace of Precipitation, MM = Missing Value Source: Averaged Metar Reports

Daily Weather History Graph

Daily Weather History Graph

Search for Another Location

Airport or City:

Trip Planner

Search our weather history database for the weather conditions in past years. The results will help you decide how hot, cold, wet, or windy it might be!

Date:

Astronomy

May. 14, 2013 Rise Set
Actual Time 5:36 AM CEST 9:24 PM CEST
Civil Twilight 4:52 AM CEST 10:08 PM CEST
Nautical Twilight 3:51 AM CEST 11:10 PM CEST
Astronomical Twilight 1:58 AM CEST 1:20 AM CEST
Moon 9:01 AM CEST (5/14) 12:22 AM CEST (5/14)
Length of Visible Light 17h 15m
Length of Day
15h 48m
Waxing Crescent, 17% of the Moon is Illuminated
May 14
Waxing Crescent
May 18
First Quarter
May 25
Full
May 31
Last Quarter
Jun 8
New

Hourly Weather History & Observations

Time (CEST) Temp. Windchill Dew Point Humidity Pressure Visibility Wind Dir Wind Speed Gust Speed Precip Events Conditions
12:25 AM 44.6 °F 38.4 °F 39.2 °F 81% 29.77 in 6.2 mi West 12.7 mph - N/A Rain Rain
12:55 AM 42.8 °F 37.0 °F 41.0 °F 93% 29.74 in 3.1 mi WSW 10.4 mph - N/A Rain Rain Showers
1:25 AM 44.6 °F 37.2 °F 42.8 °F 93% 29.74 in 4.3 mi West 17.3 mph - N/A Rain Rain
1:55 AM 44.6 °F 40.2 °F 42.8 °F 93% 29.74 in 6.2 mi WSW 8.1 mph - N/A Rain Light Rain
2:00 AM 44 °F - 42 °F 90% 29.75 in 16 mi SW 11.2 mph - - Rain Rain Showers
2:25 AM 44.6 °F 39.7 °F 42.8 °F 93% 29.71 in 6.2 mi SSW 9.2 mph - N/A   Overcast
2:55 AM 44.6 °F 39.2 °F 42.8 °F 93% 29.71 in 6.2 mi SSW 10.4 mph - N/A   Overcast
3:25 AM 44.6 °F 38.8 °F 42.8 °F 93% 29.71 in 6.2 mi SW 11.5 mph - N/A   Mostly Cloudy
3:55 AM 44.6 °F 39.7 °F 42.8 °F 93% 29.74 in 6.2 mi SW 9.2 mph - N/A   Mostly Cloudy
4:25 AM 42.8 °F 38.0 °F 42.8 °F 100% 29.74 in 6.2 mi SW 8.1 mph - N/A   Mostly Cloudy
4:55 AM 41.0 °F 37.1 °F 41.0 °F 100% 29.74 in 6.2 mi SW 5.8 mph - N/A   Unknown
5:00 AM 42 °F - 41 °F 94% 29.75 in 5 mi SW 6.7 mph - -   Mist
5:25 AM 42.8 °F 38.0 °F 41.0 °F 93% 29.74 in 6.2 mi South 8.1 mph - N/A   Unknown
5:55 AM 42.8 °F 37.0 °F 41.0 °F 93% 29.74 in 6.2 mi SSW 10.4 mph - N/A   Unknown
6:25 AM 42.8 °F 37.5 °F 41.0 °F 93% 29.74 in 6.2 mi SSW 9.2 mph - N/A   Unknown
6:55 AM 44.6 °F 39.2 °F 42.8 °F 93% 29.74 in 6.2 mi SSW 10.4 mph - N/A   Unknown
7:25 AM 44.6 °F 39.2 °F 42.8 °F 93% 29.74 in 6.2 mi SSW 10.4 mph - N/A   Unknown
7:55 AM 46.4 °F 41.1 °F 44.6 °F 93% 29.74 in 6.2 mi SW 11.5 mph - N/A   Unknown
8:00 AM 47 °F - 44 °F 86% 29.77 in 12 mi SW 8.9 mph - -   Partly Cloudy
8:25 AM 48.2 °F - 44.6 °F 87% 29.77 in 6.2 mi SSW 9.2 mph - N/A   Partly Cloudy
8:55 AM 50.0 °F - 44.6 °F 82% 29.77 in 6.2 mi SW 12.7 mph - N/A   Partly Cloudy
9:25 AM 48.2 °F - 42.8 °F 82% 29.77 in 6.2 mi SSW 12.7 mph - N/A   Mostly Cloudy
9:55 AM 50.0 °F - 44.6 °F 82% 29.77 in 6.2 mi SSW 12.7 mph - N/A   Mostly Cloudy
10:25 AM 51.8 °F - 41.0 °F 67% 29.77 in 6.2 mi SSW 17.3 mph - N/A   Mostly Cloudy
10:55 AM 51.8 °F - 41.0 °F 67% 29.77 in 6.2 mi SW 17.3 mph - N/A   Mostly Cloudy
11:00 AM 52 °F - 40 °F 55% 29.78 in - SW 17.9 mph - -   Scattered Clouds
11:25 AM 53.6 °F - 42.8 °F 67% 29.77 in 6.2 mi SW 16.1 mph - N/A   Scattered Clouds
11:55 AM 53.6 °F - 39.2 °F 58% 29.77 in 6.2 mi SSW 17.3 mph - N/A   Scattered Clouds
12:25 PM 53.6 °F - 39.2 °F 58% 29.77 in 6.2 mi SW 15.0 mph - N/A   Partly Cloudy
12:55 PM 53.6 °F - 39.2 °F 58% 29.74 in 6.2 mi WSW 15.0 mph - N/A   Partly Cloudy
1:25 PM 51.8 °F - 41.0 °F 67% 29.77 in 6.2 mi SSW 10.4 mph - N/A Rain Light Rain
1:55 PM 48.2 °F - 42.8 °F 82% 29.77 in 6.2 mi SSW 11.5 mph - N/A   Mostly Cloudy
2:00 PM 51 °F - 44 °F 70% 29.77 in 22 mi South 8.9 mph - - Rain Rain
2:25 PM 53.6 °F - 44.6 °F 72% 29.74 in 6.2 mi SSW 11.5 mph - N/A   Unknown
2:55 PM 53.6 °F - 42.8 °F 67% 29.74 in 6.2 mi South 10.4 mph - N/A   Scattered Clouds
3:25 PM 48.2 °F - 44.6 °F 87% 29.74 in 5.0 mi WSW 16.1 mph - N/A   Heavy Drizzle
3:55 PM 50.0 °F - 44.6 °F 82% 29.74 in 6.2 mi WSW 4.6 mph - N/A   Scattered Clouds
4:25 PM 51.8 °F - 46.4 °F 82% 29.74 in 6.2 mi SSW 4.6 mph - N/A   Partly Cloudy
4:55 PM 51.8 °F - 46.4 °F 82% 29.74 in 6.2 mi South 5.8 mph - N/A   Partly Cloudy
5:00 PM 53 °F - 45 °F 67% 29.74 in 12 mi South 6.7 mph - -   Partly Cloudy
5:25 PM 53.6 °F - 41.0 °F 62% 29.71 in 6.2 mi South 10.4 mph - N/A   Unknown
5:55 PM 53.6 °F - 42.8 °F 67% 29.71 in 6.2 mi South 9.2 mph - N/A   Unknown
6:25 PM 53.6 °F - 42.8 °F 67% 29.71 in 6.2 mi SSW 9.2 mph - N/A   Partly Cloudy
6:55 PM 51.8 °F - 44.6 °F 76% 29.71 in 6.2 mi South 9.2 mph - N/A   Light Drizzle
7:25 PM 50.0 °F - 44.6 °F 82% 29.71 in 6.2 mi SSE 9.2 mph - N/A   Drizzle
7:55 PM 50.0 °F - 46.4 °F 87% 29.71 in 6.2 mi South 6.9 mph - N/A   Light Drizzle
8:00 PM 50 °F - 46 °F 79% 29.71 in 9 mi South 6.7 mph - - Rain Light Drizzle
8:25 PM 50.0 °F - 46.4 °F 87% 29.68 in 6.2 mi SE 4.6 mph - N/A   Light Drizzle
8:55 PM 50.0 °F - 46.4 °F 87% 29.68 in 6.2 mi ESE 3.5 mph - N/A   Light Drizzle
9:25 PM 48.2 °F - 46.4 °F 93% 29.68 in 6.2 mi SSW 3.5 mph - N/A   Drizzle
9:55 PM 48.2 °F - 46.4 °F 93% 29.68 in 6.2 mi Variable 2.3 mph - N/A   Light Drizzle
10:25 PM 48.2 °F - 46.4 °F 93% 29.68 in 6.2 mi SSE 5.8 mph - N/A   Partly Cloudy
10:55 PM 48.2 °F - 46.4 °F 93% 29.65 in 6.2 mi SSE 8.1 mph - N/A   Overcast
11:00 PM 49 °F - 46 °F 85% 29.68 in 10 mi SSE 6.7 mph - - Rain Light Drizzle
11:25 PM 48.2 °F - 46.4 °F 93% 29.65 in 6.2 mi SSE 5.8 mph - N/A   Light Drizzle
11:55 PM 48.2 °F - 46.4 °F 93% 29.65 in 6.2 mi SE 4.6 mph - N/A   Mostly Cloudy